This is the latest recevied weather packets stored in our database for station/object KE8GJZ-2. If no packets are shown the sender has not sent any weather packets the latest 10 day(s).
| Time | Temp. | Humidity | Pressure | Rain* | Wind** | Luminosity | Snow |
|---|---|---|---|---|---|---|---|
| 1777503348 | 8.33° C | 94% | 1012.7 hPa | 0 mm | - | 47 W/m² | - |
| 1777503043 | 8.89° C | 94% | 1012.7 hPa | 0 mm | - | 57 W/m² | - |
| 1777502741 | 8.89° C | 93% | 1012.5 hPa | 0 mm | - | 54 W/m² | - |
| 1777502438 | 8.89° C | 92% | 1012.5 hPa | 0 mm | - | 67 W/m² | - |
| 1777502135 | 9.44° C | 92% | 1012.6 hPa | 0 mm | - | 114 W/m² | - |
| 1777501833 | 9.44° C | 92% | 1012.4 hPa | 0 mm | - | 115 W/m² | - |
| 1777501530 | 10° C | 92% | 1012.5 hPa | 0 mm | - | 95 W/m² | - |
| 1777501227 | 10° C | 93% | 1012.3 hPa | 0 mm | - | 102 W/m² | - |
| 1777500924 | 10° C | 93% | 1012.1 hPa | 0 mm | - | 68 W/m² | - |
| 1777500622 | 10° C | 94% | 1012.4 hPa | 0 mm | - | 72 W/m² | - |
| 1777500318 | 10° C | 93% | 1012.1 hPa | 0 mm | - | 21 W/m² | - |
| 1777500014 | 10° C | 92% | 1012.1 hPa | 0 mm | - | 34 W/m² | - |
| 1777499711 | 10° C | 93% | 1012 hPa | 0 mm | - | 47 W/m² | - |
| 1777499408 | 10° C | 93% | 1012.2 hPa | 0 mm | - | 95 W/m² | - |
| 1777499106 | 10° C | 93% | 1012.2 hPa | 0 mm | - | 138 W/m² | - |
| 1777498803 | 10° C | 94% | 1012.1 hPa | 0 mm | - | 124 W/m² | - |
| 1777498499 | 10° C | 94% | 1011.8 hPa | 0 mm | - | 128 W/m² | - |
| 1777498195 | 10° C | 94% | 1012.1 hPa | 0 mm | - | 188 W/m² | - |
| 1777497894 | 10° C | 96% | 1012 hPa | 0 mm | - | 239 W/m² | - |
| 1777497589 | 9.44° C | 96% | 1012 hPa | 0 mm | - | 115 W/m² | - |
| 1777497286 | 9.44° C | 97% | 1011.8 hPa | 0 mm | - | 115 W/m² | - |
| 1777496982 | 9.44° C | 98% | 1012.1 hPa | 0 mm | - | 163 W/m² | - |
| 1777496679 | 9.44° C | 98% | 1012 hPa | 0 mm | - | 264 W/m² | - |
| 1777496375 | 9.44° C | 98% | 1011.8 hPa | 0 mm | - | 196 W/m² | - |
| 1777496072 | 8.89° C | 98% | 1012.1 hPa | 0 mm | - | 171 W/m² | - |
* Rain latest hour (hover to see other rain measurements)
** Current wind speed in m/s (hover to see current wind gust speed)